CZ-6A DEB, 54943

Orbit data source: Space-Track

CZ-6A DEB, 54943 is space debris in SSO originally from a launch on Fri, 11 Nov 2022 UTC launched from the Taiyaun Space Center, China (TSC). Debris objects in space refer to the collection of defunct objects orbiting the Earth. Examples of debris include non-operational satellites, rocket bodies, and fragments generated from explosions, collisions, or faulty payload assembly.

Loading next visibility...
Identifier
54943, 2022-151SG
Orbit
SSO
Country
Flag of CNCN / PRC
Related business
Manufacturer
SAST
Mission
Spacecraft
Bus & Motor
Unknown
Mass
Unknown
Launch date (UTC)
2022-11-11 (4 years ago)
Launch vehicle
Unknown
Launch site
Taiyaun Space Center, China (TSC)
Object type
Payload
Rocket body
Debris
Shape & HBR
Unknown shape, 0.1 m
Radar Cross Section
Medium (>0.1 m² and <1 m²)

Expand to show TLE details & history
Last TLE update: 2 days ago

TLE from 2 days ago
0 CZ-6A DEB
1 54943U 22151SG  26171.01014579  .00002294  00000-0  95065-3 0  9995
2 54943  98.7911 193.0770 0017900 260.2242  99.6917 14.27494250186255
Epoch: 2026-06-20T00:14Z
TLE epoch observation values (Epoch: 2026-06-20T00:14:36.596Z)
Latitude
-0.00001°
Longitude
-78.80639°
Altitude
805.227 km
Speed
7.45 km/s
True Right ascension
12h 52m 18s
True Declination
0° 00' 00"
Sunlit
Object was in daylight at epoch
Visualization orbit readout
Latitude
Unknown
Longitude
Unknown
Altitude
Unknown
Speed
Unknown
Apparent Right ascension
Unknown
Apparent Declination
Unknown
Sunlit
N/A
Visualization observer readout
Local Sidereal Time
21:39:10
Azimuth
Unknown
Elevation
Unknown
Doppler factor
Unknown
Orbital elements
Apogee altitude
810.115 km
Perigee altitude
784.427 km
Semi-major axis
7,175.408 km
Eccentricity
0.00179
Inclination
98.7911°
RAAN
193.077°
Arg. of periapsis
260.2242°
True anomaly
99.89381°
Mean anomaly
99.6917°
Eccentric anomaly
99.79277°
Mean motion
3.57086 °/min
Orbital period
100.82 mins
BSTAR
0.00095065
Loading maneuver chart data...
Computing Atmospheric mass density...
Loading historical data...
Loading historical data...
Loading historical data...
Loading historical data...
Loading historical data...
Loading historical data...
Loading historical data...

Documentation

Showing up to 5 results
|